Regional Weather Roundup
Issued by NWS Upton, NY

Current Version | Previous Version | Text Only | Print | Product List | Glossary On
Versions: 1 2 3 4 5 6 7 8 9 10 11 12 13 14 15 16 17 18 19 20 21 22 23 24 25 26 27 28 29 30 31 32 33 34 35 36 37 38 39 40 41 42 43 44 45 46 47 48 49 50
477 ASUS41 KOKX 130704 RWROKX REGIONAL WEATHER ROUNDUP NATIONAL WEATHER SERVICE NEW YORK NY 200 AM EST SAT FEB 13 2016 NOTE: "FAIR" INDICATES FEW OR NO CLOUDS BELOW 12,000 FEET WITH NO SIGNIFICANT WEATHER AND/OR OBSTRUCTIONS TO VISIBILITY. NYZ071-072-176-178-NJZ106-104-130800- NEW YORK CITY METRO AREA CITY SKY/WX TMP DP RH WIND PRES REMARKS CENTRAL PARK CLOUDY 21 10 62 VRB5 29.91F WCI 15 LAGUARDIA APRT CLOUDY 23 11 60 W13 29.90F WCI 11 KENNEDY INTL MOCLDY 23 10 57 W14 29.92F WCI 11 NEWARK/LIBERTY CLOUDY 21 12 68 W12 29.91F WCI 9 BRNX BOT. GARD N/A 23 12 63 N5 29.88F WCI 17 TETERBORO FLURRIES 21 11 65 W9 29.90F WCI 11 $$ NYZ177-179-078>081-130800- LONG ISLAND NEW YORK CITY SKY/WX TMP DP RH WIND PRES REMARKS FARMINGDALE CLOUDY 23 11 60 W8 29.89F WCI 14 ISLIP CLOUDY 22 9 57 W12 29.87F WCI 10 SHIRLEY CLOUDY 21 9 59 W8 29.88F WCI 11 RIVERHEAD N/A 23 7 50 W6 29.85S WCI 16 WESTHAMPTON MOCLDY 17 11 77 W7 29.88F WCI 8 EAST HAMPTON LGT SNOW 21 17 84 W5 29.86F WCI 15 MONTAUK POINT N/A 24 15 68 NW13G18 29.86F WCI 12 $$ NYZ052-065-067-130800- HUDSON VALLEY CITY SKY/WX TMP DP RH WIND PRES REMARKS WHITE PLAINS MOCLDY 20 10 65 W8 29.84F WCI 10 NEWBURGH CLOUDY 16 12 86 W9 29.85F WCI 4 MONTGOMERY CLEAR 15 12 88 SW5 29.84F WCI 8 POUGHKEEPSIE PTCLDY 20 11 68 W7 29.86F WCI 11 ALBANY CLOUDY 19 6 57 VRB3 29.83F $$ NJZ001-105-106-008-010-013-015-019>022-104-130800- NEW JERSEY CITY SKY/WX TMP DP RH WIND PRES REMARKS NEWARK/LIBERTY CLOUDY 21 12 68 W12 29.91F WCI 9 TETERBORO FLURRIES 21 11 65 W9 29.90F WCI 11 CALDWELL LGT SNOW 19 15 84 VRB3 29.90F FOG MORRISTOWN FLURRIES 19 12 73 SW5 29.90F WCI 13 SOMERVILLE MOCLDY 20 12 71 CALM 29.90F SUSSEX MOCLDY 17 12 80 SW7 29.84F WCI 8 ANDOVER N/A 17 12 80 SW5 29.86F WCI 10 TRENTON CLOUDY 20 14 77 W5 29.91F WCI 13 MILLVILLE CLOUDY 19 16 88 W5 29.95F WCI 12 ATLANTIC CITY PTCLDY 21 18 88 W6 29.95F WCI 13 WRIGHTSTOWN PTCLDY 19 18 99 W6 29.90F WCI 10 TOMS RIVER PTCLDY 18 10 73 SW3 29.93F BELMAR CLEAR 19 9 63 MISG 29.90F $$ PAZ047>061-062-071-130800- EASTERN PENNSYLVANIA CITY SKY/WX TMP DP RH WIND PRES REMARKS PHILADELPHIA CLOUDY 23 15 71 W10 29.96F WCI 12 ALLENTOWN CLOUDY 18 13 80 SW5 29.90F WCI 11 SCRANTON CLOUDY 18 12 77 SW8 29.83F WCI 8 $$ CTZ002-004>006-009-010-012-RIZ004-006-007-MAZ004-011-015-130800- SOUTHERN NEW ENGLAND IN CT CITY SKY/WX TMP DP RH WIND PRES REMARKS BRADLEY INTL CLOUDY 13 6 74 VRB3 29.84F HARTFORD CLEAR 20 8 60 W3 29.86F DANBURY CLOUDY 19 7 59 W9 29.85F WCI 8 WTRBRY/OXFORD MOCLDY 14 0 52 W5 29.81F WCI 6 BRIDGEPORT CLOUDY 22 9 57 W9 29.88F WCI 12 MERIDEN CLEAR 14 8 77 CALM 29.86F NEW HAVEN PTCLDY 21 9 59 W8 29.86F WCI 11 CHESTER FAIR 19 10 68 W6 29.83F WCI 11 GROTON CLOUDY 20 16 84 NW7 29.85F WCI 11 WILLIMANTIC PTCLDY 14 8 77 CALM 29.85F IN RI CITY SKY/WX TMP DP RH WIND PRES REMARKS PROVIDENCE CLOUDY 20 12 71 CALM 29.85F BLOCK ISLAND CLOUDY 21 18 86 NW7 29.82F WCI 13 WESTERLY MOCLDY 20 13 74 CALM 29.85F IN MA CITY SKY/WX TMP DP RH WIND PRES REMARKS BOSTON CLOUDY 21 9 59 NW6 29.85F WCI 13 WORCESTER CLEAR 10 5 80 W9 29.76F WCI -3 WESTFIELD MOCLDY 6 2 83 CALM 29.83F PROVINCETOWN LGT SNOW 21 18 88 W5 29.86F FOG WCI 15 NANTUCKET LGT SNOW 24 19 81 N13 29.82F WCI 12 $$ ANZ330-335-338-340-345-350-353-355-130800- COASTAL MARINE OBSERVATIONS STATION/POSITION TIME SKY/WX TEMP WIND PRES VSBY WAVE AIR SEA DIR/SP/G HT/PER (UTC) (F) (DEG/KT/KT) (MB) (MI) (FT/S) NY HARB ENTRANCE 0550 25 43 280/ 16/ 21 1012.8 2/ 3 4S FIRE IS NOT AVBL 20S FIRE ISLAND 0550 26 41 300/ 21/ 25 1012.3 4/ 5 GREAT SOUTH BAY NOT AVBL 23SW MTP 0650 26 45 290/ 17/ 21 1010.6 3/ 4 HUDSON CANYON 0550 28 48 1011.8 4/ 5 KINGS POINT 0600 23 36 320/ 11/ 15 1012.4 EXECUTION ROCKS NOT AVBL CENTRAL LI SOUND 0615 25 290/ 16/ 23 N/A 2/ 4 EASTERN LI SOUND 0600 25 40 310/ 12/ 16 N/A ROBBINS REEF 0600 22 270/ 13/ 15 1012.4 $$ >>>>>>>>>>>>>>>>>>>>>>>>>>>> KEY <<<<<<<<<<<<<<<<<<<<<<<<<<< > < > SKY/WX - SKY CONDITION/PRESENT WEATHER < > TMP - TEMPERATURE IN FAHRENHEIT < > DP - DEWPOINT IN FAHRENHEIT < > RH - RELATIVE HUMIDITY IN PERCENT < > WIND - DIRECTION AND SPEED IN MPH < > PRES - MEAN SEA LEVEL PRESSURE IN INCHES OF HG < > WCI - WIND CHILL INDEX < > VSB - VISIBILITY IN MILES < > HX - HEAT INDEX < > TC - TEMPERATURE IN CELSIUS < > VRB - VARIABLE WIND DIRECTION < > < >>>>>>>>>>>>>>>>>>>>>>>>>>>> KEY <<<<<<<<<<<<<<<<<<<<<<<<<<<

USA.gov is the U.S. government's official web portal to all federal, state and local government web resources and services.